Flag for Germany Weather past 2 weeks in Heidenheim an der Brenz, Baden-Württemberg, Germany

Now
31 °F

Overcast.


Feels Like: 28 °F
Forecast: 26 / 42 °F
Wind: 3 mph from Northwest

Location: Stoetten

Current Time: Mar 6, 2015 at 1:47:10 AM

Latest Report: Mar 6, 2015 at 1:00 AM


Visibility: 25 mi

Pressure: 30.67 "Hg

Humidity: 76%

Dew point: 25 °F

Location of Heidenheim an der BrenzLocation

Historic Weather in Heidenheim an der Brenz — Graph

°F

Heidenheim an der Brenz temperature yesterday

Maximum temperature yesterday: 35 °F (at 3:00 PM)
Minimum temperature yesterday: 29 °F (at 2:00 AM)
Average temperature yesterday: 31 °F

Past Weeks' High & Low Weather Summary

 TemperatureHumidityPressure
High45 °F (Feb 20, 3:00 PM)100% (Feb 21, 6:00 PM)30.68 "Hg (Feb 21, 6:00 PM)
Low23 °F (Feb 19, 7:00 AM)36% (Feb 21, 1:00 AM)29.54 "Hg (Feb 21, 1:00 PM)
Average33 °F83%30.05 "Hg
* Reported Feb 19 1:00 AM — Mar 6 1:00 AM, Heidenheim an der Brenz, Weather by CustomWeather, © 2015

Note: Actual official high and low records may vary slightly from our data, if they occured in-between our weather recording intervals... More about our weather records

Advertising

Heidenheim an der Brenz weather history for previous 24 hours

 ConditionsComfort  
Time TempWeatherWind HumidityBarometerVisibility
1:00 AM
Fri, Mar 6
31 °FOvercast.3 mph76%30.67 "Hg25 mi
12:00 AM32 °FOvercast.2 mph74%30.67 "Hg28 mi
10:00 PM
Thu, Mar 5
32 °FOvercast.2 mph75%30.66 "Hg25 mi
9:00 PM32 °FOvercast.3 mph71%30.66 "Hg47 mi
8:00 PM32 °FOvercast.3 mph71%30.65 "Hg47 mi
7:00 PM34 °FOvercast.5 mph65%30.63 "Hg47 mi
6:00 PM34 °FOvercast.3 mph66%30.62 "Hg47 mi
5:00 PM34 °FOvercast.5 mph59%30.60 "Hg47 mi
4:00 PM35 °FOvercast.5 mph61%30.60 "Hg47 mi
3:00 PM35 °FPartly sunny.5 mph59%30.59 "Hg47 mi
2:00 PM34 °FPartly sunny.3 mph62%30.60 "Hg47 mi
1:00 PM32 °FPartly sunny.7 mph63%30.62 "Hg47 mi
12:00 PM31 °FPartly sunny.8 mph73%30.62 "Hg43 mi
11:00 AM30 °FPartly sunny.8 mph73%30.62 "Hg31 mi
10:00 AM30 °FOvercast.7 mph76%30.62 "Hg31 mi
9:00 AM30 °FOvercast.7 mph79%30.60 "Hg25 mi
8:00 AM29 °FLight snow. Low clouds.8 mph93%30.58 "Hg8 mi
7:00 AM29 °FLight snow. Low clouds.7 mph96%30.56 "Hg3 mi
6:00 AM29 °FLight snow. Low clouds.6 mph94%30.55 "Hg16 mi
5:00 AM29 °FSnow. Low clouds.6 mph94%30.54 "Hg2 mi
4:00 AM29 °FSnow flurries. Low clouds.5 mph92%30.53 "Hg11 mi
3:00 AM29 °FOvercast.6 mph92%30.52 "Hg12 mi
2:00 AM29 °FLow clouds.7 mph92%30.51 "Hg12 mi
1:00 AM29 °FPassing clouds.7 mph87%30.50 "Hg16 mi
Weather by CustomWeather, © 2015

See weather overviewHow to use our weather pages